GFSGBSN_sfc_dewp_114.txt.gz
Dewpoint
49 48 46 45 45 46 46 46 45 46 47 47 46 46 46 46 47 47 47 47 47 47 48 48 49 49 40 12 -3 18 45 38 28 42 34 24 23 26 24 24 25 26 24 22 24 23 22
48 47 46 46 46 46 45 44 46 47 46 45 45 45 46 46 47 47 47 48 48 47 47 49 49 47 35 5 10 20 18 18 11 8 24 30 21 20 22 23 22 22 23 24 24 23 22
47 47 47 46 46 44 44 45 45 46 45 45 45 45 46 46 47 47 46 48 48 47 49 49 49 42 35 17 21 29 36 35 35 33 20 19 28 26 27 24 23 22 21 22 22 23 22
46 48 48 47 45 45 45 44 45 45 45 45 44 45 45 46 46 46 47 47 47 47 47 49 49 40 22 24 29 36 35 31 28 33 34 30 16 17 16 21 26 21 21 20 22 23 24
45 45 45 46 47 45 43 44 44 44 44 44 44 44 45 45 45 47 46 45 48 47 48 48 42 35 19 35 19 21 24 22 20 27 31 28 25 15 15 16 14 15 11 11 15 24 24
45 45 47 46 45 43 41 44 44 43 43 42 43 44 45 44 45 46 45 42 41 40 36 39 39 21 17 20 24 26 23 23 22 21 20 24 22 13 8 7 5 8 9 11 12 12 18
45 43 45 45 43 41 39 40 42 42 42 42 44 44 44 44 44 44 37 29 20 23 25 23 24 26 23 25 27 24 24 22 20 21 12 15 13 2 -2 4 4 7 7 7 8 12 21
45 45 44 43 42 39 39 40 41 41 39 43 43 43 44 43 43 42 33 30 31 33 26 24 26 28 27 24 17 18 16 17 19 14 9 7 10 6 -1 -1 1 8 8 7 6 6 15
44 43 44 43 41 40 38 39 40 41 41 42 42 43 44 43 41 37 32 34 36 36 25 16 21 25 18 13 8 17 13 15 16 13 13 8 2 2 5 10 7 8 7 6 6 8 10
44 44 44 43 41 41 40 40 40 40 41 41 42 42 43 43 34 34 28 35 36 40 11 5 12 18 12 13 10 19 15 22 19 13 12 11 6 2 2 11 8 7 6 8 9 9 7
44 44 42 41 42 40 40 41 41 42 40 41 42 42 43 41 35 26 33 37 38 40 -17 3 7 13 14 15 16 18 19 22 21 18 15 13 9 8 7 3 9 9 9 12 14 13 12
43 42 40 41 41 41 41 42 42 40 40 40 41 42 41 36 38 36 38 40 36 9 -11 -0 6 13 15 16 17 17 14 23 25 22 18 15 15 12 11 8 5 12 15 14 13 12 10
42 41 40 41 40 41 40 41 41 40 39 40 41 41 37 39 33 40 40 30 6 -8 -0 1 10 15 16 13 14 12 19 24 28 26 19 18 9 10 12 11 10 10 13 5 6 8 4
42 40 40 40 39 40 40 40 39 39 39 40 42 38 39 37 39 42 35 26 0 2 5 11 15 16 13 12 14 18 18 24 20 27 25 22 13 10 10 11 6 9 11 5 -1 2 4
41 40 41 39 40 42 40 40 39 38 39 41 38 37 38 40 41 42 27 22 2 9 13 19 17 11 9 13 17 20 21 27 29 32 27 24 22 14 13 9 7 8 9 9 4 5 9
42 40 40 42 40 40 39 40 39 39 39 41 33 37 37 41 44 37 30 13 13 17 19 19 16 16 14 15 18 23 25 26 24 24 32 31 23 20 22 7 8 6 8 6 4 2 -0
42 40 40 42 40 41 39 40 39 40 41 39 35 31 38 44 42 33 25 15 19 22 23 21 18 18 17 19 21 24 29 28 20 22 24 33 31 22 20 7 3 11 15 10 5 8 1
44 42 41 40 40 40 39 40 40 41 41 37 35 31 40 42 29 27 21 22 25 22 24 24 25 24 23 24 23 22 29 24 22 23 25 33 32 25 22 29 26 8 14 15 11 8 9
44 42 42 40 40 39 40 41 40 41 41 36 30 26 39 38 27 21 23 23 24 20 19 24 23 25 27 23 22 19 20 22 22 25 29 30 29 19 20 27 34 30 11 16 19 13 12
45 43 43 40 39 41 41 41 41 42 41 36 32 29 28 36 33 19 24 22 19 19 20 24 24 26 22 21 21 20 20 22 25 24 31 29 33 29 22 29 29 31 32 27 14 16 13
44 43 43 42 39 41 42 41 41 42 41 35 34 28 28 29 29 24 24 21 18 16 19 19 23 21 22 21 20 16 20 22 22 24 25 27 24 30 27 26 20 26 31 32 27 17 15
44 44 43 42 41 40 42 41 42 42 40 36 33 26 27 22 26 26 24 18 16 17 19 17 20 20 20 21 22 21 22 22 22 23 24 26 23 24 20 24 22 19 28 27 29 29 20
45 44 44 42 41 40 42 43 42 42 40 34 35 33 29 24 23 22 18 15 17 19 18 22 23 19 20 22 25 25 27 27 27 27 27 27 23 19 16 18 23 22 28 25 24 26 28
45 45 45 43 43 43 41 42 43 42 39 35 31 31 28 21 17 17 17 19 19 19 19 20 21 20 21 26 27 28 26 27 28 27 29 28 25 20 19 18 18 21 28 26 25 26 30
44 45 45 44 43 42 41 42 42 42 40 33 35 33 28 24 16 17 20 20 19 20 20 20 20 24 28 29 26 20 17 17 18 22 24 29 27 21 18 17 12 24 22 28 28 28 35
44 44 45 43 42 41 42 42 42 42 42 36 35 39 33 27 18 18 18 19 17 17 19 21 24 27 32 28 27 20 15 16 15 17 25 26 29 25 18 14 13 22 22 25 31 32 38
44 44 44 43 42 42 42 42 42 41 42 39 34 40 34 29 21 25 20 19 23 21 19 20 25 22 30 29 24 20 21 20 19 19 20 23 25 22 20 17 14 25 28 31 29 33 40
44 44 43 42 42 42 42 42 42 41 42 41 36 39 35 30 24 27 25 22 21 20 19 22 23 28 27 25 24 21 21 19 23 23 25 26 24 26 23 20 15 28 29 30 34 39 42
42 44 43 42 42 42 41 41 41 41 41 41 35 37 39 36 28 32 32 29 26 25 24 26 24 26 27 25 23 23 22 24 21 21 33 27 31 29 24 21 29 33 36 40 40 39 42

GFSGBSN_sfc_dewp_117.txt.gz
Dewpoint
51 50 48 47 46 46 46 46 46 46 46 46 46 46 46 47 47 47 47 49 48 48 49 49 49 50 45 19 4 12 45 40 8 10 22 22 17 19 23 23 22 22 23 24 25 24 23
50 49 48 47 46 48 46 44 45 45 45 45 45 45 46 46 47 47 46 48 48 47 49 50 50 50 38 12 11 18 26 25 20 21 10 2 20 17 16 16 19 23 23 23 25 25 24
50 49 48 47 46 45 44 45 45 44 44 45 45 44 46 46 46 46 46 48 48 47 50 49 49 44 33 22 23 32 27 23 31 26 29 28 11 19 21 18 20 19 20 21 22 22 23
49 48 48 47 46 46 46 45 44 44 44 44 44 45 46 46 46 45 46 47 47 48 48 49 49 38 22 21 22 20 21 19 16 17 23 31 30 17 17 17 14 12 20 20 21 22 22
48 49 48 47 46 46 44 44 43 43 44 43 43 45 45 45 46 47 47 47 46 46 47 48 45 32 19 33 19 21 19 20 20 19 18 26 26 23 14 12 9 6 3 9 14 16 20
47 47 47 47 47 45 43 44 43 42 42 41 43 44 45 44 46 47 46 46 41 44 43 35 33 18 19 19 21 21 17 14 18 21 18 17 21 16 11 5 1 0 4 5 9 11 12
47 46 46 47 45 43 43 43 42 41 41 42 44 44 44 44 44 46 41 31 20 31 19 17 19 21 19 15 20 9 14 10 16 15 13 13 7 9 1 3 2 -0 1 1 8 8 10
47 46 47 46 44 43 41 41 41 41 40 43 43 43 44 44 44 44 35 24 25 30 19 20 23 24 22 14 6 2 12 11 12 10 12 11 7 4 -2 3 -1 -5 -2 3 1 1 5
47 46 45 45 43 41 41 41 41 41 41 42 43 43 43 43 42 39 31 30 33 33 26 11 18 16 12 11 9 9 13 14 12 13 11 8 7 6 5 2 1 1 -1 -0 -1 -0 3
47 46 45 44 43 42 41 41 41 41 41 41 42 43 43 43 37 31 29 30 33 39 22 6 8 14 8 10 8 10 17 14 15 14 11 12 11 8 5 3 1 3 1 1 -3 0 -1
46 44 45 44 42 42 41 41 41 42 41 41 42 42 43 42 33 23 30 34 36 39 6 3 2 7 7 8 10 10 13 12 15 18 20 16 14 10 7 6 4 -1 3 7 5 4 6
46 46 44 43 43 41 42 42 42 41 40 40 41 42 42 37 37 33 35 37 37 26 0 1 2 7 7 8 7 9 11 17 22 19 16 14 15 17 12 10 9 10 5 6 11 9 7
45 44 42 42 42 41 41 43 42 41 39 40 41 42 38 36 33 38 40 32 17 1 -2 -0 6 8 10 8 8 9 12 11 18 17 15 15 14 13 14 11 11 10 10 4 9 9 8
45 43 41 42 41 41 41 41 41 39 39 40 42 39 39 35 38 41 36 28 17 1 0 9 10 10 5 6 10 11 11 12 15 22 21 14 15 14 24 21 10 9 9 7 5 5 4
44 42 41 42 41 41 42 41 40 39 39 40 40 39 39 40 42 40 29 28 8 7 14 16 12 6 4 8 11 12 16 21 20 23 27 23 18 21 20 20 20 8 7 7 10 7 6
44 42 41 41 41 43 41 40 40 39 39 41 34 34 35 41 44 39 29 12 9 13 15 16 12 11 10 10 13 16 19 23 20 19 24 28 24 20 21 30 25 10 6 7 9 6 3
43 42 41 43 42 41 40 40 40 40 40 41 35 30 37 42 42 31 30 14 14 18 19 18 14 14 14 15 17 18 22 24 17 16 21 27 31 21 27 26 16 7 6 4 7 8 4
44 44 43 43 41 41 40 40 41 40 41 39 34 33 37 39 29 25 19 16 23 18 21 20 22 20 19 19 18 18 24 18 18 20 20 32 31 23 21 27 32 26 7 6 5 6 5
45 44 43 43 43 41 41 40 41 41 42 33 27 28 37 37 32 20 21 17 18 17 16 17 18 19 22 19 16 17 17 17 17 19 23 27 25 21 17 26 28 27 16 7 10 8 5
45 44 43 43 42 41 41 42 41 42 42 37 30 33 28 32 29 28 22 19 17 19 17 17 19 21 20 17 17 17 16 16 21 20 30 28 28 26 23 27 26 30 30 17 14 16 7
45 44 44 43 42 41 42 41 41 42 42 37 34 31 27 29 31 23 23 18 17 16 18 20 16 18 19 16 15 14 16 18 18 24 22 25 24 25 20 16 21 25 30 23 23 25 17
45 45 44 44 43 42 42 42 42 42 42 34 35 25 26 23 25 24 24 17 16 13 17 16 16 15 17 16 16 16 19 20 19 22 23 26 23 21 18 21 21 26 32 30 22 19 16
45 44 44 44 43 42 42 43 43 44 41 29 30 30 26 23 23 23 20 18 15 15 18 16 17 18 18 17 20 23 24 23 23 25 25 27 26 22 15 17 24 28 28 28 30 32 23
45 44 44 44 43 43 43 43 43 44 41 32 30 28 28 24 16 16 15 17 16 18 19 17 19 19 18 21 25 24 23 21 21 21 25 26 26 22 17 19 22 27 24 31 29 27 31
45 45 45 44 43 41 43 43 43 44 42 35 32 29 26 26 15 15 17 18 19 20 19 19 19 19 25 25 24 19 16 15 18 20 20 26 27 24 18 16 20 24 23 22 25 28 35
45 45 45 45 44 43 43 43 43 43 42 36 33 33 28 28 18 15 17 18 16 16 16 19 21 25 27 25 24 18 14 16 13 14 22 24 29 26 20 14 15 23 23 24 27 30 36
44 44 44 45 44 43 43 43 43 42 42 37 34 39 30 30 23 22 17 18 19 18 17 18 20 23 27 28 24 19 17 19 19 18 19 23 25 23 20 20 15 26 27 31 28 32 39
44 44 44 45 44 43 43 43 43 42 42 40 39 39 32 29 25 24 23 22 20 20 16 22 22 27 26 25 22 22 20 19 19 22 24 22 25 28 23 19 18 33 30 32 37 39 39
44 44 44 44 43 43 43 43 42 42 43 42 39 38 35 36 30 35 31 28 25 23 24 27 24 23 26 25 27 23 24 25 22 21 32 27 29 28 26 26 35 35 36 38 37 38 38

GFSGBSN_sfc_dewp_120.txt.gz
Dewpoint
52 52 52 50 48 47 47 46 46 46 47 46 46 46 46 47 47 47 47 48 47 46 47 50 51 52 46 30 7 13 51 45 27 5 3 2 6 15 11 11 18 21 20 20 22 24 25
53 53 50 49 47 47 48 47 47 46 45 45 46 45 46 47 47 46 46 47 48 47 48 51 50 51 44 20 14 29 25 20 25 24 22 22 13 3 10 13 11 14 15 18 21 23 24
53 51 50 49 47 48 47 45 45 45 45 45 45 45 46 47 46 46 46 47 47 47 49 50 50 44 35 20 22 18 18 17 16 18 17 18 26 24 9 11 15 14 15 16 15 20 22
53 51 49 48 48 47 45 46 46 44 44 45 44 45 46 46 46 46 47 48 47 48 49 49 50 44 26 20 23 17 17 16 16 16 16 15 21 25 20 14 11 10 7 7 7 14 19
52 50 49 48 48 46 47 45 44 43 44 44 43 45 46 45 47 47 47 48 47 47 48 48 45 34 21 32 17 17 18 11 9 17 20 10 21 21 17 11 7 4 3 -1 -0 4 3
51 50 49 48 48 47 46 45 45 43 43 43 44 45 45 45 46 47 47 47 46 45 45 36 31 21 20 17 11 17 11 13 10 15 12 16 17 14 14 8 5 -1 0 4 4 4 9
50 50 50 49 48 47 45 45 44 41 43 42 44 44 44 44 45 46 44 34 26 34 19 15 15 16 14 16 8 4 8 11 10 10 7 10 8 7 3 8 6 4 3 -0 1 3 5
50 50 49 49 48 46 44 43 43 41 42 43 43 43 44 44 44 46 40 23 26 29 22 18 21 21 19 13 7 7 10 12 13 10 11 10 8 6 5 4 0 -1 -0 2 1 -2 2
50 49 49 49 48 45 43 42 42 41 42 42 42 43 43 44 44 41 30 28 30 32 29 14 14 12 6 7 7 6 15 13 10 9 10 11 11 11 8 8 5 5 4 3 2 -0 -1
49 48 48 49 47 44 43 41 41 41 42 42 42 43 43 44 40 32 31 28 32 38 26 11 14 16 6 6 8 7 14 10 9 10 16 16 14 14 15 12 9 7 6 3 -0 1 -4
48 48 48 48 46 44 43 42 41 41 42 41 42 42 43 43 40 26 30 33 34 40 14 5 3 4 4 4 6 5 8 9 8 16 16 13 11 9 10 8 9 12 12 7 3 2 5
48 48 47 46 45 44 43 41 42 42 41 41 41 42 43 39 41 33 35 37 37 31 13 5 0 3 4 6 6 7 9 11 10 16 15 11 12 11 10 15 21 21 16 10 11 8 3
47 46 46 45 45 43 42 42 43 41 40 40 41 42 40 37 36 37 40 37 23 18 -2 -0 3 4 6 5 5 8 8 9 12 21 18 12 11 12 15 17 19 20 21 9 9 9 5
46 46 45 45 44 42 42 43 43 41 39 40 41 42 42 34 38 41 39 32 22 2 -4 9 4 5 5 3 7 8 9 10 12 21 16 12 13 13 17 19 22 29 22 12 7 7 4
46 45 43 43 43 42 41 41 41 40 39 40 41 40 40 42 42 41 35 30 13 6 12 10 7 4 2 5 8 10 12 17 18 18 23 19 13 17 18 18 21 27 16 14 12 12 10
45 44 42 42 42 40 43 41 40 39 39 39 37 35 35 41 43 41 33 24 9 10 9 11 9 8 7 8 11 13 14 18 17 19 25 19 20 18 18 22 26 27 23 16 11 7 5
44 43 41 42 43 42 43 41 40 39 39 40 37 31 40 40 41 36 31 18 12 14 13 14 11 11 12 12 13 14 16 17 17 14 17 22 25 19 22 29 30 31 30 20 14 8 6
45 44 44 43 42 42 41 40 40 40 40 38 36 34 39 39 32 29 25 14 21 15 19 17 18 17 16 15 15 14 18 14 14 20 16 23 27 19 18 30 27 23 27 27 10 7 9
45 44 44 43 43 42 41 40 41 40 41 37 28 29 38 38 32 25 20 17 13 14 14 15 16 16 17 16 15 13 13 13 17 18 21 23 19 20 15 19 21 20 20 24 27 25 12
45 45 44 42 43 41 42 41 42 40 41 38 33 33 29 29 28 28 24 19 16 16 15 14 14 16 16 17 16 13 11 12 15 16 28 27 25 24 20 23 23 22 24 29 30 23 13
46 45 44 44 44 42 42 41 42 41 41 37 35 32 27 30 31 25 23 16 16 15 16 15 16 14 15 15 16 11 12 12 16 23 20 22 23 25 21 17 16 22 22 30 27 22 26
46 45 44 44 44 43 41 42 42 41 42 36 36 28 25 24 25 25 24 19 16 14 14 15 13 13 13 13 14 12 13 17 18 18 19 23 23 23 20 18 15 16 28 34 26 22 21
46 46 45 45 44 43 43 43 43 43 41 29 31 29 30 26 22 23 20 19 15 15 14 16 14 14 14 15 17 18 21 21 20 20 23 24 24 23 20 16 18 24 32 29 34 34 33
46 45 45 45 44 43 43 44 44 44 42 34 32 29 26 25 18 17 17 18 17 15 18 16 17 17 17 19 22 22 19 18 19 18 22 22 24 24 22 21 19 31 26 22 26 35 37
45 45 45 44 44 43 43 43 44 44 44 36 36 30 26 26 20 15 16 17 17 18 18 17 17 18 23 23 20 16 18 16 18 21 19 21 24 25 20 16 16 27 25 25 25 29 34
45 45 45 44 44 43 42 43 44 44 43 38 38 36 31 27 22 17 16 18 17 16 17 19 19 22 25 22 23 17 14 14 13 14 22 23 25 27 24 20 14 28 25 31 28 29 38
45 45 45 45 44 43 42 42 44 44 42 38 36 39 33 32 25 23 18 18 18 17 16 18 19 21 24 26 23 19 16 20 18 20 19 22 24 24 24 21 25 32 31 31 22 29 38
45 45 45 44 45 44 44 43 43 43 42 40 37 40 34 30 26 27 23 23 22 20 18 24 21 23 25 23 22 21 22 21 19 20 23 23 23 23 24 20 21 34 32 28 34 36 37
41 44 44 44 45 45 43 43 43 43 43 42 39 40 37 37 31 34 33 32 27 24 24 27 23 25 23 22 27 25 23 24 19 18 30 26 31 29 30 28 34 31 32 34 35 35 36

GFSGBSN_sfc_dewp_123.txt.gz
Dewpoint
55 54 54 53 52 50 49 48 46 47 47 47 46 46 46 47 47 47 47 47 47 47 48 49 51 52 48 40 12 22 52 46 40 23 19 21 15 3 5 9 12 12 15 20 20 20 20
55 54 54 54 51 49 48 48 48 48 47 46 46 46 46 47 47 46 46 47 48 47 48 50 51 52 46 25 18 19 19 18 16 15 16 18 20 25 23 3 8 14 13 11 13 13 15
55 54 54 53 51 49 48 49 47 45 45 45 46 45 46 47 47 46 46 47 48 48 49 50 51 45 40 22 20 19 18 17 16 17 16 16 15 21 25 21 15 12 9 10 11 17 14
55 54 54 52 51 50 50 47 46 47 45 45 45 45 46 47 46 46 47 48 48 48 49 52 50 46 32 24 24 17 17 17 13 11 16 19 18 16 25 23 19 12 7 7 6 8 8
55 54 53 51 50 50 48 47 47 45 44 44 44 45 46 46 47 48 48 48 48 48 48 50 44 44 25 34 12 15 18 15 15 14 18 15 14 17 21 17 13 9 4 3 4 5 3
55 54 53 51 49 48 47 47 46 44 43 44 43 45 45 45 47 47 47 48 48 47 43 39 38 30 21 17 12 11 14 13 12 16 13 15 18 20 17 13 9 7 4 3 2 1 4
55 54 52 50 50 49 48 46 46 44 42 43 43 44 44 44 45 47 44 39 28 35 34 18 18 17 16 18 15 9 12 12 16 15 12 13 10 9 8 9 9 8 7 4 4 3 1
54 53 52 50 50 49 48 46 46 43 42 43 43 43 43 44 44 46 42 28 29 30 27 20 21 22 21 16 9 10 17 14 14 11 12 11 11 13 14 13 12 11 8 7 6 4 2
53 52 51 51 51 50 49 47 45 43 42 43 43 43 43 44 45 42 29 28 31 35 30 19 15 12 10 10 10 9 15 17 9 8 10 14 16 14 12 10 12 13 11 11 9 8 6
52 51 52 50 49 49 48 46 44 43 42 43 42 43 43 45 43 36 31 31 34 38 30 12 17 15 8 8 13 7 14 11 12 8 11 16 16 11 11 10 9 7 14 15 14 15 6
51 50 48 47 49 48 46 45 44 43 42 43 42 42 43 43 39 33 33 34 33 40 19 15 4 8 7 9 8 9 9 13 9 9 14 16 15 12 10 10 13 17 19 18 19 17 13
49 48 48 50 48 46 45 44 44 43 43 41 41 42 43 41 41 37 37 38 38 31 18 5 4 7 8 8 9 10 11 12 13 18 18 19 16 12 12 14 16 17 22 21 19 17 11
49 48 47 48 47 46 45 44 43 44 42 40 41 42 41 38 37 39 40 38 26 22 7 2 4 6 8 8 8 9 10 11 13 19 18 17 16 17 15 14 16 19 25 20 14 12 9
48 48 48 48 46 45 44 43 43 43 41 39 41 43 41 38 41 41 41 33 23 8 6 10 7 7 8 8 10 11 12 13 18 19 20 18 17 15 15 15 17 18 20 19 16 11 9
48 48 47 46 45 44 43 44 44 41 39 39 41 40 41 42 41 42 37 25 22 13 15 11 8 7 9 11 12 15 15 21 21 23 20 19 15 16 15 18 24 30 28 29 27 22 16
47 46 46 45 44 42 42 41 41 40 39 39 38 39 40 41 41 41 33 27 15 11 9 10 12 11 9 11 13 17 19 22 19 22 26 24 16 14 19 20 25 26 32 27 22 12 8
46 45 44 44 43 42 42 42 41 39 40 39 37 35 39 40 40 37 28 25 15 14 13 11 14 14 14 15 17 18 20 21 19 21 23 23 24 18 21 21 18 25 28 30 31 21 10
45 44 44 44 43 41 44 42 41 40 40 37 37 32 39 39 33 33 28 25 21 17 20 18 21 20 18 20 19 19 19 19 23 24 19 25 22 18 15 18 21 24 22 28 26 24 22
45 44 44 43 43 44 43 41 41 39 40 39 33 35 38 38 28 28 25 18 16 13 17 18 20 21 21 18 17 19 18 20 15 19 24 23 19 18 15 18 24 22 21 19 28 30 23
46 45 44 43 43 42 41 41 41 40 41 39 36 31 32 31 30 30 28 22 17 19 17 16 16 17 18 18 19 19 18 19 22 20 30 27 25 25 18 19 23 23 21 20 26 28 22
46 45 44 44 44 43 43 41 41 41 41 38 37 31 31 28 30 28 26 23 20 19 19 18 18 17 18 17 17 17 17 16 18 24 22 22 18 20 22 22 21 21 21 32 32 31 25
45 44 45 44 45 44 43 42 42 41 42 37 33 30 30 25 28 28 29 23 21 17 18 18 18 17 17 15 17 15 17 18 19 20 20 20 19 22 21 22 22 19 31 33 33 33 32
45 45 45 44 45 43 43 43 44 42 41 33 33 31 30 29 22 25 24 22 20 20 20 17 18 17 18 19 20 21 23 21 21 20 20 20 21 21 19 22 21 26 32 32 32 34 33
46 45 45 45 44 44 43 44 44 43 42 37 37 34 29 25 23 21 21 22 22 21 20 21 21 19 21 24 24 23 21 21 21 19 20 19 20 22 21 22 16 28 26 27 31 33 34
45 45 45 45 44 44 44 44 44 44 43 40 37 35 30 26 22 21 20 20 20 20 20 20 20 21 25 23 22 20 19 19 20 26 30 30 29 25 22 22 20 26 25 28 28 32 34
46 45 45 45 44 44 44 44 44 44 42 41 37 39 32 27 23 23 22 19 17 17 20 23 24 25 24 23 23 18 17 17 17 21 26 24 31 25 25 22 20 25 28 30 27 27 35
45 45 45 45 44 44 44 44 44 44 43 40 37 38 34 27 27 26 22 23 24 20 17 21 26 24 25 23 21 20 19 21 20 21 22 23 24 23 24 22 27 28 30 29 20 25 34
45 45 45 45 44 44 43 43 44 44 43 40 36 39 35 30 29 32 32 28 26 23 21 26 25 28 25 20 22 20 21 23 22 24 25 24 23 20 25 22 16 30 27 25 31 35 35
43 45 45 45 44 44 43 43 43 44 43 42 36 40 39 33 32 34 33 33 32 30 27 26 26 26 26 23 28 25 23 22 20 17 28 25 27 25 26 26 33 31 30 33 34 34 34

GFSGBSN_sfc_dewp_129.txt.gz
Dewpoint
58 58 57 57 56 56 55 54 53 52 50 48 48 47 47 46 47 47 47 47 47 48 49 49 51 52 47 37 12 19 47 40 21 18 16 16 17 19 20 21 17 6 11 15 14 10 11
58 57 57 56 56 56 55 54 53 52 50 49 48 47 47 46 47 47 47 46 47 48 49 49 51 52 44 31 17 20 17 17 17 16 13 15 16 14 15 23 19 18 18 18 11 10 6
58 57 57 56 56 56 55 54 53 52 50 50 47 46 46 46 47 47 46 46 47 48 49 49 50 47 43 30 19 20 17 18 18 16 12 14 15 16 19 14 24 21 18 14 9 2 5
58 57 57 56 55 55 54 54 52 51 50 48 47 46 45 46 46 46 46 47 48 48 50 49 48 45 38 25 25 11 17 16 18 15 14 14 18 17 18 19 19 15 11 7 8 8 6
58 57 57 56 55 55 54 53 52 51 49 48 46 45 44 46 46 46 46 47 48 49 50 49 43 43 29 32 15 12 17 16 16 17 18 16 15 16 20 16 12 11 9 10 11 11 13
58 58 57 56 55 55 54 52 52 51 50 47 46 44 44 45 45 47 47 47 47 46 43 39 38 32 28 19 18 17 14 17 15 19 12 14 15 13 12 13 10 10 10 10 9 11 11
59 58 57 56 55 55 54 52 51 50 49 47 45 44 44 43 45 46 45 35 22 32 32 26 25 22 18 18 17 11 17 17 13 12 9 13 11 11 12 13 13 12 10 9 8 9 10
55 58 58 57 56 55 54 52 51 50 48 46 44 44 42 44 44 45 43 28 30 29 15 24 23 21 23 18 11 9 19 14 11 8 11 10 12 16 14 14 13 12 10 9 11 13 16
52 56 57 57 56 55 54 52 51 49 47 45 44 43 42 43 44 39 30 29 34 32 22 29 22 22 19 15 9 7 15 14 8 9 9 9 15 18 15 13 11 10 10 11 15 15 14
51 52 56 57 56 54 53 52 50 49 46 45 44 43 43 42 38 38 30 32 37 39 22 17 17 16 9 9 11 7 15 9 11 9 12 15 19 16 15 13 13 12 15 15 13 13 12
51 50 55 56 55 53 52 51 50 48 46 45 44 44 43 42 37 34 32 35 38 39 6 18 17 13 7 8 9 11 12 11 11 13 13 14 17 16 15 14 14 12 16 16 16 16 15
51 52 55 55 54 52 51 50 49 47 45 45 44 43 43 42 39 36 38 39 38 26 10 15 7 8 7 8 9 11 14 17 21 19 18 16 18 17 16 16 15 17 17 19 21 19 16
54 53 55 54 53 51 50 50 48 47 46 46 43 42 41 39 37 38 39 38 27 19 12 5 5 10 7 7 9 12 15 17 15 11 13 17 17 18 18 14 16 17 17 17 15 13 10
54 54 55 53 52 51 50 49 48 46 46 45 43 43 40 38 40 40 39 33 22 13 10 10 9 8 7 9 13 16 13 14 18 18 16 16 12 15 17 16 14 17 26 20 14 11 14
54 55 53 52 51 49 49 49 47 46 46 43 42 38 38 40 40 40 35 22 13 18 15 10 7 8 11 15 15 16 16 20 17 20 16 17 15 17 15 17 17 20 22 22 24 23 20
54 53 51 50 49 48 48 47 47 45 44 43 36 38 38 41 42 40 32 24 24 16 12 14 10 13 11 12 15 17 16 19 17 22 23 19 15 16 18 19 24 24 22 21 26 16 12
51 50 49 49 48 47 46 46 46 44 42 42 38 36 38 41 41 35 26 26 17 17 18 16 16 16 15 14 16 16 17 20 19 21 22 19 19 16 18 18 15 18 20 23 25 24 19
45 46 47 47 46 45 46 45 43 42 43 40 37 31 39 40 34 32 28 30 23 17 22 21 21 18 18 19 17 17 19 17 20 21 17 21 20 16 13 18 20 19 17 21 23 19 20
44 45 44 45 45 45 45 44 42 42 41 38 36 35 38 38 27 29 30 20 20 19 19 20 21 22 22 18 15 18 18 22 18 19 19 20 17 13 10 14 15 16 15 19 31 30 24
45 44 44 44 44 44 44 42 43 42 41 39 35 28 30 32 32 30 27 20 18 22 19 19 17 19 17 17 18 18 20 22 24 20 28 26 21 12 8 12 19 18 17 23 30 24 24
44 44 44 44 44 43 42 41 41 41 42 38 34 29 27 23 28 28 27 23 18 18 20 19 15 17 17 14 16 16 18 18 20 22 21 20 15 21 21 20 17 15 20 27 27 29 24
44 43 43 44 44 43 42 41 41 42 41 35 32 30 31 29 29 27 28 24 20 20 18 18 19 19 17 16 16 14 17 17 17 19 18 19 12 18 16 18 18 18 28 25 29 29 24
42 43 44 44 44 42 41 41 41 42 37 32 34 32 30 27 27 24 25 22 22 20 23 21 20 18 19 19 20 19 20 19 18 18 17 18 20 18 16 18 19 24 25 23 26 29 29
44 43 43 43 43 42 41 43 41 42 39 36 36 32 29 24 24 23 26 24 22 21 21 22 20 18 21 23 22 22 22 22 22 21 21 20 20 20 18 21 9 22 28 23 24 31 29
44 44 44 44 44 44 44 44 43 42 40 37 37 33 29 24 24 23 23 22 22 22 19 19 20 21 25 23 19 19 18 18 22 25 22 22 24 21 21 21 21 24 23 23 24 25 27
44 43 44 44 44 44 45 44 43 42 40 37 37 37 32 27 24 26 22 21 18 18 18 21 26 26 25 23 22 17 14 16 17 21 27 29 29 24 22 18 11 21 24 27 26 21 28
44 44 44 44 44 44 44 44 43 42 40 37 36 37 32 28 29 29 23 23 22 20 19 25 26 22 25 21 21 19 17 21 20 18 22 24 23 22 22 20 20 26 27 27 21 17 29
44 44 44 44 44 45 45 45 44 43 40 37 36 39 33 29 31 32 32 27 24 23 22 24 24 25 24 19 21 19 20 22 21 23 23 21 19 16 20 17 10 28 25 21 27 29 31
45 44 44 44 44 44 45 45 44 43 40 38 36 39 38 33 31 34 32 32 30 27 26 26 24 25 26 24 25 24 22 19 20 15 24 17 21 18 20 19 28 29 27 28 30 30 31

GFSGBSN_sfc_dewp_132.txt.gz
Dewpoint
59 59 58 58 58 57 57 56 55 54 53 51 49 49 48 47 46 47 48 47 47 48 48 49 50 52 47 32 14 19 48 40 17 17 15 15 15 18 17 20 18 12 13 16 15 16 10
59 58 58 58 57 57 57 56 55 54 53 51 49 49 48 47 46 47 47 46 47 48 48 49 50 52 42 13 18 20 16 17 17 15 13 13 15 14 14 20 17 18 18 19 15 10 7
59 58 58 57 57 57 57 56 55 54 53 51 50 49 47 46 46 47 46 46 47 48 49 49 50 47 39 9 19 19 18 17 18 14 12 14 16 14 17 12 21 21 15 11 10 9 7
59 59 58 57 57 56 56 55 55 55 53 51 50 49 47 45 46 47 46 46 47 48 50 50 48 45 25 36 24 10 15 15 17 16 15 16 16 16 15 19 15 12 10 10 12 12 11
56 59 59 58 57 56 55 55 55 54 53 51 50 48 47 46 46 46 46 47 48 48 50 49 44 40 23 34 15 13 16 14 15 18 17 18 17 18 15 13 10 12 9 9 10 11 9
53 55 59 58 57 56 56 55 54 54 52 52 50 48 46 46 45 47 48 47 46 46 45 40 38 25 29 19 17 16 15 16 14 18 13 14 15 14 13 11 6 9 9 10 10 10 9
53 53 54 57 57 57 56 55 54 53 52 51 50 47 45 45 45 46 44 29 21 23 31 20 24 23 17 18 17 12 17 15 12 12 9 14 14 12 11 13 12 12 11 10 9 9 11
52 53 53 53 58 57 57 56 54 53 52 51 50 47 45 44 44 45 37 25 27 27 16 20 24 21 22 16 9 10 18 10 11 8 10 13 14 15 14 14 12 11 10 9 10 13 13
52 52 52 52 53 57 57 56 54 52 51 50 49 47 45 44 43 37 28 28 34 31 12 19 24 21 22 14 8 6 15 12 8 8 8 10 15 17 14 12 12 12 11 11 12 14 13
51 51 51 51 52 53 57 56 54 53 51 50 48 46 46 44 37 35 29 33 37 34 9 9 19 19 10 11 10 7 14 8 11 7 13 16 19 15 14 12 14 11 14 15 14 13 10
50 49 49 50 51 51 55 55 54 52 51 49 47 46 45 42 34 32 30 33 39 32 -3 16 17 13 10 8 9 10 15 12 10 12 10 14 16 14 14 14 15 12 17 17 14 15 16
48 48 49 50 50 51 52 55 53 51 50 49 47 45 44 41 38 35 37 37 38 10 1 17 11 9 8 10 9 14 15 20 21 18 16 15 17 17 15 16 16 16 17 17 21 19 14
49 48 48 50 49 50 51 54 52 50 49 48 46 44 42 42 38 38 39 37 10 5 13 7 8 11 8 8 11 12 16 16 10 9 12 16 17 18 18 15 16 17 20 14 11 9 7
48 46 48 51 50 50 51 53 51 50 48 48 46 44 43 39 39 39 39 31 13 13 14 9 10 8 7 10 14 15 14 15 18 17 16 12 10 15 17 14 13 22 22 14 4 10 10
46 49 50 53 51 50 51 52 50 49 48 47 43 41 41 41 42 41 35 22 6 17 13 10 7 5 10 16 15 15 16 18 17 21 16 16 14 18 15 17 16 17 17 21 14 20 18
47 53 53 54 53 50 52 50 48 48 46 43 37 37 38 44 43 40 32 14 18 17 13 13 10 13 12 14 14 16 17 20 18 23 23 19 14 15 16 19 18 20 20 15 22 13 10
47 54 54 53 52 51 50 48 47 46 45 40 38 34 41 41 41 35 25 23 20 18 17 15 16 15 15 15 16 16 18 20 19 22 21 21 18 14 17 16 13 17 17 21 23 22 17
43 49 53 51 50 49 48 47 46 45 43 40 38 31 42 41 31 32 27 26 24 19 22 20 21 18 19 19 17 19 19 19 21 21 15 22 22 15 11 17 19 18 17 21 19 15 23
44 43 47 49 48 48 47 46 44 43 41 40 35 35 40 39 27 28 28 25 21 18 19 19 21 23 22 19 16 19 20 22 18 18 18 21 16 10 5 9 12 15 15 17 21 26 22
44 44 44 44 45 45 44 44 43 43 43 41 35 30 33 35 32 28 26 19 19 22 20 19 20 20 18 17 20 20 21 23 23 24 29 24 20 8 1 4 16 16 16 17 26 22 24
43 43 43 43 43 44 43 43 41 44 44 40 35 29 29 25 25 30 25 23 19 18 20 18 16 19 19 16 17 17 18 18 20 27 21 17 12 19 18 17 17 16 17 25 19 25 24
44 43 43 43 43 43 42 41 41 43 43 35 32 29 32 22 29 28 28 22 21 21 21 19 18 20 19 16 17 15 17 16 15 19 17 19 9 16 16 16 16 17 27 25 25 28 24
43 44 44 43 42 42 42 40 41 43 37 33 34 32 30 28 27 26 24 24 22 23 25 22 20 20 19 19 19 19 18 18 18 18 16 17 17 18 15 18 19 19 23 23 20 27 27
42 44 43 43 42 42 41 41 42 41 39 36 35 32 30 24 24 22 25 23 21 22 22 21 21 19 22 23 23 22 21 21 20 19 18 19 20 19 18 21 7 18 25 24 23 28 28
43 43 42 42 41 42 42 42 42 40 40 36 37 32 29 24 24 26 24 24 23 22 20 20 20 23 25 22 19 16 17 19 23 22 21 21 23 20 17 21 21 22 24 23 22 24 27
43 42 42 43 43 44 43 43 42 40 39 37 36 36 32 26 24 26 22 21 18 19 20 24 26 27 26 23 22 14 12 14 16 24 25 22 26 26 23 18 9 18 24 27 26 20 28
43 43 44 43 44 44 43 42 42 41 40 37 36 37 32 29 30 28 21 21 22 21 22 25 23 23 25 23 21 18 16 21 18 18 22 24 24 21 21 18 19 25 26 27 20 17 28
43 43 44 44 44 44 42 43 42 41 41 38 36 38 33 30 31 32 31 25 23 24 23 25 25 25 24 21 22 20 20 22 21 23 23 20 17 15 20 18 12 27 24 20 25 28 29
43 43 42 44 44 44 44 44 42 41 40 38 35 38 37 33 30 34 32 31 28 26 27 26 25 26 26 24 24 24 23 21 19 15 24 16 20 18 20 17 26 27 26 28 28 30 30

GFSGBSN_sfc_dewp_138.txt.gz
Dewpoint
58 61 60 60 59 59 59 58 58 56 56 55 55 53 51 50 49 48 47 49 48 48 48 50 51 52 44 19 3 19 48 42 15 14 14 15 13 14 6 10 13 11 11 10 10 8 8
56 57 59 60 59 59 59 58 58 57 56 55 55 53 52 50 49 48 47 48 48 48 48 50 51 52 34 4 17 19 16 16 12 8 7 11 12 12 10 8 5 11 8 9 11 8 8
52 55 56 57 59 59 59 58 57 57 56 55 55 53 52 51 50 48 47 48 49 48 48 50 51 45 32 16 18 18 16 15 13 12 8 13 14 10 11 10 16 16 9 6 8 9 6
51 53 53 54 55 56 58 58 58 57 56 56 55 53 52 52 50 49 48 49 49 47 49 50 50 44 18 29 22 11 13 15 14 15 13 15 18 18 17 19 13 8 9 -2 9 8 5
52 52 52 53 54 54 54 57 57 57 57 56 55 54 52 51 50 49 49 49 48 48 49 47 44 38 7 34 18 10 13 10 15 18 19 16 19 18 17 9 4 5 -6 1 2 4 3
48 49 50 52 52 53 53 54 56 57 57 56 56 54 53 51 50 48 48 47 46 47 43 39 36 29 20 17 15 11 14 13 13 17 17 16 17 11 9 2 -10 0 1 2 1 -3 5
46 47 48 48 51 52 52 53 54 56 56 56 56 54 53 52 50 48 43 37 28 30 34 23 18 11 18 17 14 11 13 11 12 13 8 16 8 2 8 12 10 7 2 -4 -4 3 7
49 49 47 47 49 50 50 53 53 53 56 56 55 54 53 51 49 47 40 25 19 26 25 22 19 26 19 14 10 11 14 8 10 4 12 9 3 13 12 11 7 2 -1 -2 2 3 8
50 50 49 48 48 49 50 52 53 53 53 55 55 54 53 50 48 43 35 25 29 27 27 25 20 20 17 14 9 9 13 9 5 6 6 4 13 15 12 10 4 1 2 2 1 5 7
49 50 50 49 49 50 51 52 52 52 52 52 55 54 52 47 42 42 36 29 34 29 27 22 10 12 17 14 10 8 10 7 9 7 8 11 16 12 11 5 7 1 7 7 7 7 0
48 49 49 50 50 50 50 51 52 52 51 51 53 53 49 48 42 37 38 44 42 35 25 16 14 16 12 6 8 12 11 10 8 13 14 14 14 13 7 6 10 4 11 13 14 12 12
48 48 49 49 50 49 50 50 51 50 50 51 52 53 47 46 45 43 45 46 44 25 26 14 10 12 10 6 7 12 12 17 15 13 12 14 16 10 8 10 11 12 15 14 17 16 7
48 48 49 49 49 49 49 50 50 50 50 50 51 52 46 45 42 46 46 39 26 22 18 12 8 10 7 5 9 11 12 12 7 10 10 12 12 15 14 6 11 12 12 1 -1 2 -3
47 48 48 48 48 49 49 49 48 49 49 50 50 50 48 46 47 47 41 33 22 27 15 11 10 8 5 7 10 11 9 12 13 8 6 5 7 12 14 8 7 15 16 13 6 -3 0
46 47 48 48 48 49 49 49 49 49 49 48 49 48 45 46 47 45 35 26 28 25 16 10 8 8 7 8 11 13 12 14 13 17 11 7 8 14 12 13 13 17 17 19 22 16 14
45 46 47 47 48 47 47 48 47 47 47 48 46 42 41 46 46 41 34 33 31 24 17 12 11 10 8 9 11 12 15 16 17 19 22 17 14 12 13 16 17 19 18 21 19 14 6
44 45 46 46 47 47 47 48 48 47 47 48 43 36 42 46 44 35 30 32 31 23 16 17 15 10 9 10 10 13 16 17 16 19 19 17 15 14 14 15 14 18 20 18 21 18 13
44 45 46 46 46 46 46 47 46 46 46 46 41 34 43 44 32 33 32 34 30 22 18 19 19 16 12 12 12 16 20 17 19 19 15 23 17 9 7 13 15 15 16 18 22 17 17
45 45 43 44 45 46 46 45 45 45 46 45 38 34 43 40 30 29 32 30 27 24 18 17 18 17 17 14 14 17 18 20 18 18 21 20 16 3 4 13 19 15 15 14 18 21 19
44 43 43 43 45 45 45 45 45 47 48 44 35 28 32 36 37 31 32 31 26 27 24 23 22 20 19 16 18 18 19 20 21 18 30 24 19 22 10 12 15 16 12 11 22 25 17
43 43 42 44 42 47 47 48 50 50 47 41 38 31 33 28 32 34 31 30 26 25 26 26 22 19 18 17 17 16 19 21 24 29 23 21 18 18 6 -0 2 4 9 14 26 26 25
43 42 41 43 43 48 52 50 49 47 45 41 34 33 32 29 31 32 32 32 28 27 25 23 20 19 19 18 17 17 17 18 19 21 19 18 6 9 -0 1 2 2 13 20 23 25 20
43 41 41 43 42 43 44 47 47 46 43 38 39 35 32 31 32 32 30 29 26 28 26 23 23 23 22 21 20 21 20 20 22 19 17 13 7 7 2 12 14 19 22 24 32 24 26
43 41 40 41 42 43 43 43 43 43 42 43 38 35 35 30 31 28 28 28 27 25 27 27 26 23 24 24 24 22 21 21 20 18 17 10 7 14 13 19 15 24 23 22 24 27 27
42 41 41 40 42 42 43 43 43 42 42 41 42 41 37 31 30 30 28 27 27 30 28 25 25 24 27 22 18 14 15 14 16 16 15 14 16 20 18 13 18 24 24 22 18 20 26
42 41 42 40 42 42 44 44 43 43 43 42 40 42 40 33 31 32 32 31 28 27 26 26 26 29 26 18 16 11 12 8 14 19 17 17 22 22 20 14 11 22 24 23 24 23 26
42 41 42 41 41 43 43 43 42 42 42 42 40 43 39 32 34 33 30 27 25 23 21 24 23 22 24 22 18 13 14 16 17 17 17 16 19 21 18 17 18 24 24 27 21 26 27
41 40 41 41 42 43 42 42 42 40 39 37 37 41 37 33 31 30 26 26 24 23 20 25 22 24 22 21 15 19 19 19 19 21 21 20 20 21 19 17 14 24 25 23 27 28 29
40 41 40 41 42 42 41 43 43 41 40 39 34 37 37 33 30 33 32 32 28 25 26 29 26 24 23 19 23 22 23 25 21 21 26 23 23 21 21 22 29 26 27 29 28 27 30

GFSGBSN_sfc_dewp_141.txt.gz
Dewpoint
55 57 59 61 60 59 59 59 58 57 57 56 56 55 54 52 51 50 50 50 48 48 49 49 51 52 46 26 8 22 45 39 18 11 9 10 10 10 6 3 8 7 3 8 3 3 2
53 54 56 57 58 60 60 59 58 57 57 56 56 55 54 53 51 50 50 50 49 49 48 49 51 52 41 14 12 14 14 14 11 8 5 5 7 7 6 5 5 8 3 1 1 3 5
52 53 53 55 56 55 59 59 58 58 57 56 56 55 54 53 52 51 50 50 50 49 48 49 51 44 33 15 11 14 14 13 11 9 8 7 9 5 8 5 9 6 5 0 4 2 4
52 53 52 54 54 54 54 55 58 58 58 57 56 55 54 53 52 52 51 50 49 48 47 50 50 41 28 22 17 15 14 14 13 11 10 13 14 13 14 16 9 3 4 -4 3 5 3
48 50 51 52 53 53 54 54 54 57 58 57 56 56 54 53 52 51 50 49 48 47 49 49 41 37 26 33 17 14 12 10 12 14 16 12 16 15 15 8 4 3 -4 0 0 3 0
47 48 49 50 51 52 52 53 53 54 55 57 56 56 55 53 52 51 48 47 44 45 44 32 27 28 29 18 14 10 12 11 12 15 15 15 14 10 8 1 -4 3 2 -0 0 -1 -1
46 46 48 49 49 49 50 52 52 53 54 56 57 56 55 54 52 49 44 35 33 36 31 31 32 26 13 14 15 10 11 10 11 15 11 14 9 5 0 9 8 2 -3 -6 -5 -2 2
48 47 48 48 49 49 48 50 51 52 53 53 56 56 55 53 51 48 43 33 28 31 25 32 29 25 20 15 11 11 12 10 12 9 9 11 5 6 9 7 4 1 0 -2 -1 -2 1
50 49 48 48 48 49 48 50 51 52 53 53 53 56 55 53 49 46 39 34 42 36 26 31 33 26 25 18 15 10 13 11 8 7 8 6 10 12 8 8 4 1 2 2 -1 -0 2
50 50 49 48 49 50 50 51 51 52 52 52 52 54 53 49 46 43 37 42 44 43 34 35 34 28 28 21 18 16 12 10 8 4 2 2 13 11 9 7 5 0 5 1 0 3 -5
49 49 49 50 50 50 50 50 51 51 52 52 51 52 50 50 46 40 42 45 45 44 27 33 25 22 29 19 15 10 11 9 9 6 8 7 13 10 9 5 7 2 8 5 8 9 8
48 48 48 49 49 49 50 50 50 51 52 51 51 53 49 46 46 44 45 44 45 33 26 28 16 16 20 19 10 9 10 9 7 8 11 7 12 10 7 8 7 6 8 10 12 13 8
46 47 48 48 48 49 49 49 49 50 51 51 51 51 49 45 43 46 44 43 30 27 35 27 14 14 15 14 8 11 9 11 11 12 10 11 12 10 11 6 10 8 11 7 10 10 4
45 46 46 47 48 48 49 49 49 49 50 50 50 50 49 47 46 45 44 35 26 32 31 21 19 13 14 10 9 12 10 12 12 11 9 8 7 11 11 7 5 9 11 11 9 -0 0
44 45 45 46 46 48 48 48 48 49 49 49 49 48 47 48 47 46 39 30 33 35 32 22 13 12 12 10 10 12 14 17 14 13 16 12 7 10 10 9 7 16 14 17 19 10 13
42 44 45 45 45 46 47 48 48 48 48 48 47 46 45 47 47 43 36 33 34 36 30 23 21 17 12 9 12 13 14 14 14 15 17 13 16 12 10 10 13 16 18 20 20 13 5
42 43 44 45 45 45 45 47 48 48 48 47 46 39 45 47 44 38 31 34 36 36 28 23 23 20 16 14 12 15 16 16 13 16 20 18 19 13 13 14 12 18 17 16 18 15 12
42 43 44 44 44 45 45 46 47 47 47 46 43 33 45 46 33 34 33 36 36 33 32 26 25 24 20 17 15 16 19 19 17 17 14 19 20 14 12 12 11 14 20 18 22 16 16
42 43 43 44 45 44 46 47 47 46 46 45 38 37 44 43 29 31 32 33 34 32 29 28 28 28 26 22 19 21 18 19 15 18 18 21 17 10 8 12 14 14 13 14 18 20 15
43 43 43 44 44 46 46 46 46 45 46 45 38 29 34 38 38 32 31 35 33 31 30 24 23 24 24 22 25 23 21 21 20 17 31 25 18 23 14 11 17 17 11 12 19 22 15
43 43 43 44 46 44 44 44 43 46 46 44 39 34 34 29 33 34 31 30 31 28 28 25 23 21 21 23 24 19 21 21 19 28 20 19 18 17 6 1 8 13 12 12 26 20 21
42 44 44 44 43 43 44 43 44 43 45 42 35 36 33 29 32 35 33 31 31 29 28 26 23 20 21 22 21 18 19 21 19 22 20 21 13 13 8 2 -3 -4 6 11 13 14 12
42 44 43 43 42 42 42 43 42 44 44 40 40 39 33 32 32 33 34 32 31 30 29 27 23 22 22 20 21 22 25 25 24 21 22 20 13 8 3 -2 -4 12 10 14 32 21 24
43 44 43 42 41 42 42 44 49 48 43 41 39 37 34 32 31 31 30 32 30 32 29 25 25 24 26 26 28 27 25 22 22 19 21 19 14 9 6 14 12 20 21 16 17 28 27
43 43 42 39 41 41 43 45 48 45 43 41 40 37 34 34 31 30 30 32 32 33 29 27 26 28 30 28 25 22 20 20 18 17 17 15 12 15 14 14 17 22 21 19 19 21 23
42 42 41 39 41 42 43 44 46 46 45 45 44 43 38 37 32 30 32 33 34 32 30 29 29 32 32 26 23 19 20 17 16 14 13 10 14 19 16 13 12 21 22 23 21 21 26
41 42 41 40 43 43 43 44 44 45 45 45 44 47 40 38 37 34 34 34 33 30 28 30 29 30 32 28 23 19 18 16 14 14 14 15 18 18 17 16 19 24 23 24 19 26 27
42 41 41 41 42 43 43 43 44 44 45 44 44 46 42 36 37 36 35 33 30 30 27 30 28 27 28 25 21 21 21 16 19 15 14 12 16 20 18 16 14 25 24 21 28 29 30
41 41 42 42 41 43 43 42 42 44 44 43 41 44 44 38 37 39 37 36 34 30 29 30 28 28 27 26 23 19 21 24 19 20 18 21 20 20 19 20 30 25 27 29 27 27 30